User: anonymous   Login
Location: Nitra
(0.0000°N, 18.0833°E)
Time: 05:55:35
(UTC+01:00)
Language:

Nadezhda 4 Rocket - Orbit

View from above orbital plane
View from above orbital plane
View from above satellite
View from above satellite

Ground track
Ground track

The orbit data is extracted from the following two-line orbital elements,

1 23180U 94041B   24057.59424281  .00000002  00000-0 -12703-4 0  9995
2 23180  82.9428 271.2029 0028263 205.3855 207.4240 13.78142111489280
Epoch (UTC): 26 February 2024 14:15:42
Eccentricity: 0.0028263
inclination: 82.9428°
perigee height: 950 km
apogee height: 991 km
right ascension of ascending node: 271.2029°
argument of perigee: 205.3855°
revolutions per day: 13.78142111
mean anomaly at epoch: 207.4240°
orbit number at epoch: 48928

The dashed part of the orbit path shows where the satellite is in the earth's shadow,  

DLR